Starlink 3705

operational
NORAD ID: 52103 Int'l Des: 2022-029 Owner: SPXS Country: US Constellation: starlink
LEOCIRCULAR

About Starlink 3705

Description loading...

Live Position

Loading 3D Globe...

Upcoming Passes

Altitude History

Altitude vs Time

uPlot chart will show altitude changes over time

Two-Line Element Set

1 52103U 22029R 25305.26415058 -.00001150 00000-0 -54156-4 0 9996
2 52103 53.2170 295.6431 0001530 92.7133 267.4034 15.08836556201393
Epoch: Nov 1, 2025 • Age: 23 hours

Current Status

Altitude 540.7 km
Velocity 7.60 km/s
Sub-Earth Point 29.61°N, 33.71°W
Launch Date Mar 19, 2022
Age 3.6 years
Type internet

Technical Details

Classification Payload
Mass 297.00 kg
Dry Mass 275.00 kg
Total Mass 297.00 kg
Length 0.20 m
Diameter 2.80 m
Span 9.00 m
Shape Box + pan
Manufacturer SPXS
Bus Type Starlink
Phase Status In Orbit
Owner/State SPXS/US

Large Constellations

Loading constellations...